TimeCEST,TemperatureF,Dew PointF,Humidity,Sea Level PressureIn,VisibilityMPH,Wind Direction,Wind SpeedMPH,Gust SpeedMPH,PrecipitationIn,Events,Conditions,WindDirDegrees,DateUTC
12:00 AM,55,53,88,30.22,,SSW,5.8,,,,,210,2013-10-05 22:00:00
12:50 AM,55.4,51.8,88,30.21,6.2,SSW,2.3,-,N/A,,Overcast,200,2013-10-05 22:50:00
1:00 AM,54,53,94,30.21,,SW,4.6,,,,,220,2013-10-05 23:00:00
1:50 AM,55.4,53.6,94,30.21,6.2,Calm,Calm,-,N/A,,Overcast,0,2013-10-05 23:50:00
2:00 AM,54,53,93,30.22,12,WSW,2.3,,,,Partly Cloudy,240,2013-10-06 00:00:00
2:50 AM,55.4,53.6,94,30.21,6.2,South,3.5,-,N/A,,Overcast,180,2013-10-06 00:50:00
3:00 AM,54,53,93,30.22,,SW,2.3,,,,,220,2013-10-06 01:00:00
3:50 AM,55.4,53.6,94,30.21,6.2,South,3.5,-,N/A,,Overcast,190,2013-10-06 01:50:00
4:50 AM,53.6,53.6,100,30.18,6.2,South,2.3,-,N/A,,Overcast,190,2013-10-06 02:50:00
5:50 AM,53.6,53.6,100,30.18,6.2,South,2.3,-,N/A,,Overcast,190,2013-10-06 03:50:00
6:00 AM,54,52,92,30.19,,South,2.3,,,,,190,2013-10-06 04:00:00
6:50 AM,55.4,53.6,94,30.18,6.2,South,2.3,-,N/A,,Overcast,170,2013-10-06 04:50:00
7:00 AM,54,52,92,30.20,,SSE,1.2,,,,,160,2013-10-06 05:00:00
7:50 AM,55.4,53.6,94,30.21,6.2,Calm,Calm,-,N/A,,Overcast,0,2013-10-06 05:50:00
8:00 AM,54,52,92,30.21,12,Calm,Calm,,,,Mostly Cloudy,,2013-10-06 06:00:00
8:50 AM,55.4,53.6,94,30.21,6.2,Variable,1.2,-,N/A,,Mostly Cloudy,0,2013-10-06 06:50:00
9:00 AM,54,53,95,30.21,,SSW,1.2,,,,,210,2013-10-06 07:00:00
9:50 AM,55.4,53.6,94,30.21,6.2,Variable,2.3,-,N/A,,Mostly Cloudy,0,2013-10-06 07:50:00
10:00 AM,56,53,86,30.21,,Calm,Calm,,,,,,2013-10-06 08:00:00
10:50 AM,57.2,53.6,88,30.21,6.2,Variable,2.3,-,N/A,,Overcast,0,2013-10-06 08:50:00
11:50 AM,59.0,53.6,82,30.21,6.2,NNE,3.5,-,N/A,,Overcast,20,2013-10-06 09:50:00
12:00 PM,58,53,79,30.21,,North,4.6,,,,,10,2013-10-06 10:00:00
12:50 PM,59.0,53.6,82,30.21,6.2,ENE,4.6,-,N/A,,Mostly Cloudy,60,2013-10-06 10:50:00
1:00 PM,60,54,74,30.20,,NNE,5.8,,,,,20,2013-10-06 11:00:00
2:00 PM,61,54,71,30.18,13,NE,5.8,,,,Mostly Cloudy,40,2013-10-06 12:00:00
2:50 PM,62.6,53.6,72,30.18,6.2,ENE,6.9,-,N/A,,Mostly Cloudy,60,2013-10-06 12:50:00
3:00 PM,61,53,68,30.17,,NE,6.9,,,,,40,2013-10-06 13:00:00
3:50 PM,62.6,53.6,72,30.18,6.2,ENE,9.2,-,N/A,,Mostly Cloudy,60,2013-10-06 13:50:00
4:00 PM,62,54,68,30.17,,NE,6.9,,,,,50,2013-10-06 14:00:00
5:50 PM,60.8,53.6,77,30.18,6.2,ENE,9.2,-,N/A,,Mostly Cloudy,60,2013-10-06 15:50:00
6:00 PM,60,53,69,30.18,,ENE,10.4,,,,,60,2013-10-06 16:00:00
6:50 PM,59.0,53.6,82,30.21,6.2,NE,5.8,-,N/A,,Mostly Cloudy,50,2013-10-06 16:50:00
7:00 PM,58,52,75,30.20,,ENE,4.6,,,,,70,2013-10-06 17:00:00
8:00 PM,57,51,74,30.22,,ENE,5.8,,,,,60,2013-10-06 18:00:00
8:50 PM,57.2,51.8,82,30.24,6.2,ENE,5.8,-,N/A,,Overcast,60,2013-10-06 18:50:00
9:50 PM,57.2,51.8,82,30.24,6.2,ENE,4.6,-,N/A,,Overcast,60,2013-10-06 19:50:00
10:00 PM,57,51,76,30.23,,NE,3.5,,,,,40,2013-10-06 20:00:00
10:50 PM,57.2,51.8,82,30.24,6.2,NE,5.8,-,N/A,,Mostly Cloudy,50,2013-10-06 20:50:00
11:50 PM,57.2,51.8,82,30.24,6.2,NE,5.8,-,N/A,,Overcast,50,2013-10-06 21:50:00